Вернуться в каталог

STARLINK-35605

АктивенСвязьVLEO
NORAD 66150·PAYLOAD·🇺🇸 United States

Запущен Oct 25, 2025 с Cape Canaveral Space Force Station

Loading…

Ближайшие Пролёты (ближайшие 24 часа)

TLE

СвежийSource: CelesTrak SupGP

Эпоха: Sep 14, 2026, 22:34 UTC

1 66150C 25240E   26257.94076389  .00042195  00000+0  12467-2 0  2578
2 66150  53.1566 261.3501 0001234  96.9580  48.1083 15.34368666    14

Отслеживайте STARLINK-35605 в реальном времени с AllMySat

Download on the App Store